Location: Unspecified
(0.0000°N, 1.0000°E)
Time: 06:31:42
(UTC+02:00)

Daily predictions for brighter satellites

Satellite Brightness Start Highest point End
(mag) Time Altitude Azimuth Time Altitude Azimuth Time Altitude Azimuth
CZ-4 R/B 4.3 20:23:18 10° SW 20:25:25 14° WSW 20:27:32 10° WNW
Cosmos 1634 Rocket 4.3 20:21:31 10° N 20:27:48 76° W 20:34:08 10° S
Cosmos 1953 2.7 20:24:09 10° NNE 20:28:02 45° E 20:31:56 10° SSE
OAO 3 Rocket 4.0 20:24:55 10° NNW 20:29:31 39° NE 20:34:05 10° ESE
Cosmos 1805 3.8 20:26:47 10° NNE 20:30:25 38° E 20:34:04 10° SSE
Ariane H10 3.4 20:24:43 10° W 20:31:00 52° S 20:33:49 10° ESE
OTV 4 0.7 20:30:07 10° SW 20:32:58 44° SE 20:35:49 10° ENE
Ariane H10-3 3.2 20:23:10 10° W 20:34:51 71° N 20:37:46 10° E
MSX 3.8 20:30:53 10° SSE 20:36:37 71° ENE 20:42:20 10° N
Cosmos 468 Rocket 4.2 20:35:46 10° N 20:40:40 47° ENE 20:45:34 10° SSE
Meteor 1-24 Rocket 3.9 20:40:50 10° S 20:46:34 53° E 20:52:04 10° NNE
Cosmos 968 Rocket 3.8 20:42:04 10° S 20:46:53 42° ESE 20:51:43 10° NNE
COSMOS 2441 4.3 20:43:31 10° SSE 20:48:21 87° E 20:53:09 10° N
Sakura Rocket 3.8 20:46:39 10° WSW 20:52:12 58° NNW 20:56:22 10° NE
ARIANE 5 DEB (SYLDA) 2.3 20:51:06 10° WSW 20:53:00 43° S 20:54:37 22° ESE
Sylda 5 2.3 20:50:39 10° WSW 20:55:11 52° S 20:57:27 20° ESE
Cosmos 1470 3.7 20:51:54 10° NNE 20:55:19 28° E 20:57:00 21° SE
Spot 2 Rocket 3.6 20:53:22 10° SSE 20:58:16 53° ENE 21:03:09 10° N
Ariane H10+ 1.1 20:55:25 10° W 21:00:22 86° S 21:01:20 31° E
Ariane 42L R/B 3.5 20:48:41 10° WSW 21:00:29 48° S 21:02:32 24° ESE
Resurs 01 Rocket 1.8 20:56:54 12° SSE 21:00:55 53° ENE 21:05:14 10° N
NOAA 12 4.1 20:57:29 10° SSE 21:02:46 71° ENE 21:08:02 10° N
NOSS 3-1 (C) 4.2 20:59:02 10° SSE 21:03:25 22° ESE 21:07:44 10° ENE
Cosmos 1697 Rocket 3.9 20:59:13 10° NNE 21:03:30 22° ENE 21:04:51 20° E
Helios 1A 2.9 21:01:41 10° SSE 21:05:56 85° ENE 21:10:09 10° N
BREEZE-M DEB (TANK) 4.0 21:03:41 10° N 21:06:35 39° ENE 21:10:04 22° ESE
CZ-4B DEB 3.9 21:06:55 28° E 21:06:55 28° E 21:09:48 10° NNE
ALOS 4.0 21:07:48 16° ENE 21:07:48 16° ENE 21:10:03 10° NE
Cosmos 405 Rocket 2.8 21:03:37 10° S 21:07:19 70° W 21:10:59 10° N
ATLAS 2A CENTAUR R/B 2.5 20:51:06 10° WSW 21:07:42 89° SE 21:10:46 16° ENE
Cosmos 1842 Rocket 3.5 21:03:21 10° N 21:07:50 84° E 21:12:17 10° S
H-2A R/B 2.7 21:04:50 10° SW 21:08:28 71° SE 21:28:57 10° ENE
Cosmos 1544 2.9 21:05:14 10° N 21:08:51 76° E 21:11:18 19° S
Cosmos 1656 4.1 21:05:47 10° N 21:10:53 39° ENE 21:13:03 27° ESE
Cosmos 1733 3.8 21:08:02 10° NNE 21:11:28 33° E 21:11:39 33° E
Cosmos 1766 Rocket 3.5 21:09:53 10° S 21:14:21 76° E 21:18:46 10° N
GPS 2-05 Rocket1 3.2 21:11:38 10° WNW 21:15:10 58° SW 21:16:10 39° SSE
Cosmos 2221 3.6 21:17:10 10° NNE 21:19:59 26° ENE 21:19:59 26° ENE
Cosmos 1814 Rocket 4.3 21:15:53 10° NNW 21:21:09 67° WSW 21:25:53 13° S
FREGAT/IRIS 4.1 21:18:51 14° SSW 21:21:15 38° W 21:24:10 10° NNW
Lacrosse 5 4.1 21:19:10 10° WNW 21:22:49 20° WSW 21:26:28 10° SSW
Cosmos 1777 Rocket 4.0 21:17:57 10° S 21:23:10 60° ESE 21:28:21 10° NNE
ARIANE 3 DEB 2.4 21:21:11 10° W 21:26:43 72° S 21:26:59 67° SE
BLOCK DM-SL R/B 3.3 21:28:23 10° W 21:32:34 90° SE 21:35:43 33° E
Resurs 1-3 3.7 21:31:19 31° S 21:33:24 76° W 21:37:46 10° NNW
SEDSat Delta rocket 3.8 21:29:47 10° W 21:33:30 35° SSW 21:34:06 33° SSW
Hubble Space Telescope 2.6 21:32:16 10° W 21:35:54 29° NNW 21:38:59 13° NNE
Cosmos 2026 Rocket 4.1 21:30:09 10° S 21:36:11 72° W 21:42:13 10° N
Cosmos 841 Rocket 3.3 21:32:25 10° N 21:37:38 74° ENE 21:38:51 52° SE
ARIANE 5 DEB (SYLDA 5A) 3.1 21:35:43 10° W 21:37:45 32° WNW 21:37:45 32° WNW
ARIANE 5 R/B 3.0 21:36:47 10° W 21:40:59 78° S 21:48:31 32° ESE
ARIANE 5 R/B 3.0 21:36:47 10° W 21:40:59 78° S 21:48:29 32° ESE
ARIANE 5 R/B 3.0 21:36:48 10° W 21:40:59 78° S 21:48:30 32° ESE
ARIANE 5 R/B 3.0 21:36:48 10° W 21:40:59 78° S 21:48:31 32° ESE
ARIANE 5 R/B 3.0 21:36:47 10° W 21:40:59 78° S 21:48:32 32° ESE
Cosmos 836 Rocket 4.4 21:43:00 10° N 21:48:11 66° ENE 21:48:11 66° ENE
EUTELSAT W3B 4.3 21:52:22 10° W 21:55:38 79° S 21:56:56 58° ESE
Lacrosse 5 rocket 4.2 21:54:09 10° W 21:56:01 12° WSW 21:57:57 10° SSW
Ariane H10 2.9 21:56:16 10° W 21:59:17 88° NNW 21:59:17 88° NNW
Ariane H10+ 3.3 22:02:13 10° WSW 22:04:57 24° WSW 22:04:57 24° WSW
Cosmos 1980 Rocket 3.5 22:35:12 10° NNW 22:38:40 37° NW 22:38:40 37° NW
